Location: Carabito
(9.8355°N, 67.9249°W)
Time: 10:12:38
(UTC+00:00)

ATLAS 5 CENTAUR R/B - Pass Details

Date: 23 May 2024
Orbit: 257 x 11806 km, 20.2° (Epoch: 20 June)

Event Time Altitude Azimuth Distance (km) Brightness Sun altitude
Rises 04:59:41 0° 286° (WNW) 17,066 8.4 -58.5°
Reaches altitude 10° 05:24:23 10° 288° (WNW) 15,417 8.0 -56.5°
Enters shadow 06:26:48 68° 276° (W) 4,397 4.9 -47.8°
Exits shadow 06:33:17 77° 146° (SE) 3,101 4.2 -46.7°
Drops below altitude 10° 06:42:11 10° 116° (ESE) 3,683 5.1 -45.2°
Sets 06:44:00 0° 115° (ESE) 4,189 5.5 -44.8°
